| time (UTC) | temp F | wind direction | speed MPH | gust MPH | rain 1hr in | rain 24hr in | rain mn in | humidity % | barometer mb |
| 20260904003050 | 93 | 126 | 12.0 | 26.0 | 0.00 | 0.00 | 0.00 | 57 | 1009.3 |
| 20260904001550 | 94 | 120 | 17.0 | 26.0 | 0.00 | 0.00 | 0.00 | 55 | 1009.1 |
| 20260904000047 | 95 | 98 | 14.0 | 24.0 | 0.00 | 0.00 | 0.00 | 52 | 1009.0 |
| 20260903234544 | 96 | 106 | 10.0 | 24.0 | 0.00 | 0.00 | 0.00 | 52 | 1009.0 |
| 20260903233109 | 97 | 77 | 9.0 | 24.0 | 0.00 | 0.00 | 0.00 | 51 | 1008.8 |
| 20260903231543 | 99 | 108 | 11.0 | 19.0 | 0.00 | 0.00 | 0.00 | 50 | 1008.5 |
| 20260903230055 | 99 | 105 | 8.0 | 17.0 | 0.00 | 0.00 | 0.00 | 47 | 1008.2 |
| 20260903224549 | 99 | 90 | 10.0 | 24.0 | 0.00 | 0.00 | 0.00 | 47 | 1007.9 |
| 20260903223103 | 101 | 107 | 10.0 | 22.0 | 0.00 | 0.00 | 0.00 | 45 | 1007.8 |
| 20260903221555 | 102 | 106 | 6.0 | 16.0 | 0.00 | 0.00 | 0.00 | 44 | 1007.8 |
| 20260903220116 | 101 | 101 | 9.0 | 18.0 | 0.00 | 0.00 | 0.00 | 45 | 1007.8 |
| 20260903214549 | 101 | 107 | 10.0 | 18.0 | 0.00 | 0.00 | 0.00 | 46 | 1007.8 |
| 20260903213043 | 102 | 110 | 5.0 | 14.0 | 0.00 | 0.00 | 0.00 | 45 | 1007.8 |
| 20260903211555 | 103 | 115 | 5.0 | 17.0 | 0.00 | 0.00 | 0.00 | 45 | 1007.8 |
| 20260903210059 | 102 | 96 | 6.0 | 19.0 | 0.00 | 0.00 | 0.00 | 47 | 1008.0 |
| 20260903204545 | 102 | 153 | 9.0 | 17.0 | 0.00 | 0.00 | 0.00 | 47 | 1008.2 |
| 20260903203049 | 102 | 75 | 4.0 | 14.0 | 0.00 | 0.00 | 0.00 | 46 | 1008.3 |
| 20260903201544 | 102 | 68 | 6.0 | 17.0 | 0.00 | 0.00 | 0.00 | 45 | 1008.5 |
| 20260903200051 | 103 | 179 | 5.0 | 13.0 | 0.00 | 0.00 | 0.00 | 44 | 1008.9 |
| 20260903194553 | 101 | 136 | 3.0 | 15.0 | 0.00 | 0.00 | 0.00 | 46 | 1009.0 |
| 20260903193048 | 101 | 117 | 6.0 | 15.0 | 0.00 | 0.00 | 0.00 | 46 | 1009.2 |
| 20260903191542 | 100 | 137 | 8.0 | 17.0 | 0.00 | 0.00 | 0.00 | 47 | 1009.5 |
| 20260903190052 | 100 | 111 | 6.0 | 16.0 | 0.00 | 0.00 | 0.00 | 48 | 1009.8 |
| 20260903184548 | 98 | 171 | 8.0 | 18.0 | 0.00 | 0.00 | 0.00 | 50 | 1010.2 |
| 20260903183046 | 98 | 118 | 10.0 | 18.0 | 0.00 | 0.00 | 0.00 | 49 | 1010.5 |
| 20260903181542 | 98 | 124 | 11.0 | 16.0 | 0.00 | 0.00 | 0.00 | 51 | 1010.9 |
| 20260903180050 | 97 | 360 | 7.0 | 13.0 | 0.00 | 0.00 | 0.00 | 52 | 1011.1 |
| 20260903174546 | 96 | 140 | 6.0 | 18.0 | 0.00 | 0.00 | 0.00 | 55 | 1011.3 |
| 20260903173043 | 96 | 127 | 6.0 | 15.0 | 0.00 | 0.00 | 0.00 | 56 | 1011.6 |
| 20260903171547 | 95 | 133 | 9.0 | 17.0 | 0.00 | 0.00 | 0.00 | 58 | 1011.8 |
| 20260903170050 | 94 | 138 | 9.0 | 19.0 | 0.00 | 0.00 | 0.00 | 59 | 1012.1 |
| 20260903164549 | 93 | 140 | 9.0 | 18.0 | 0.00 | 0.00 | 0.00 | 61 | 1012.2 |
| 20260903163043 | 92 | 184 | 11.0 | 19.0 | 0.00 | 0.00 | 0.00 | 62 | 1012.5 |
| 20260903161552 | 91 | 142 | 10.0 | 17.0 | 0.00 | 0.00 | 0.00 | 63 | 1012.4 |
| 20260903160047 | 91 | 360 | 11.0 | 21.0 | 0.00 | 0.00 | 0.00 | 66 | 1012.5 |
| 20260903154552 | 89 | 146 | 12.0 | 19.0 | 0.00 | 0.00 | 0.00 | 68 | 1012.4 |
| 20260903153052 | 89 | 147 | 13.0 | 19.0 | 0.00 | 0.00 | 0.00 | 69 | 1012.4 |
| 20260903151551 | 88 | 147 | 11.0 | 20.0 | 0.00 | 0.00 | 0.00 | 72 | 1012.5 |
| 20260903150105 | 87 | 123 | 11.0 | 18.0 | 0.00 | 0.00 | 0.00 | 74 | 1012.5 |
| 20260903144556 | 86 | 163 | 9.0 | 18.0 | 0.00 | 0.00 | 0.00 | 76 | 1012.7 |
| 20260903143041 | 86 | 138 | 10.0 | 17.0 | 0.00 | 0.00 | 0.00 | 77 | 1012.7 |
| 20260903141549 | 85 | 135 | 8.0 | 16.0 | 0.00 | 0.00 | 0.00 | 80 | 1012.7 |
| 20260903140044 | 84 | 157 | 10.0 | 18.0 | 0.00 | 0.00 | 0.00 | 81 | 1012.7 |
| 20260903134603 | 83 | 153 | 10.0 | 16.0 | 0.00 | 0.00 | 0.00 | 82 | 1012.7 |
| 20260903133043 | 83 | 166 | 6.0 | 14.0 | 0.00 | 0.00 | 0.00 | 83 | 1012.7 |
| 20260903131551 | 82 | 153 | 7.0 | 16.0 | 0.00 | 0.00 | 0.00 | 84 | 1012.3 |
| 20260903130045 | 82 | 152 | 7.0 | 11.0 | 0.00 | 0.00 | 0.00 | 84 | 1012.3 |
| 20260903124553 | 82 | 134 | 6.0 | 12.0 | 0.00 | 0.00 | 0.00 | 84 | 1012.2 |
| 20260903123051 | 82 | 155 | 7.0 | 15.0 | 0.00 | 0.00 | 0.00 | 84 | 1012.3 |
| 20260903121553 | 82 | 142 | 6.0 | 15.0 | 0.00 | 0.00 | 0.00 | 84 | 1012.1 |
| 20260903120053 | 82 | 132 | 8.0 | 13.0 | 0.00 | 0.00 | 0.00 | 84 | 1012.0 |
| 20260903114543 | 82 | 132 | 9.0 | 15.0 | 0.00 | 0.00 | 0.00 | 84 | 1012.0 |
| 20260903113050 | 82 | 136 | 10.0 | 16.0 | 0.00 | 0.00 | 0.00 | 83 | 1011.9 |
| 20260903111541 | 82 | 142 | 7.0 | 12.0 | 0.00 | 0.00 | 0.00 | 83 | 1011.9 |
| 20260903110045 | 82 | 164 | 8.0 | 16.0 | 0.00 | 0.00 | 0.00 | 83 | 1012.0 |
| 20260903104544 | 83 | 136 | 7.0 | 15.0 | 0.00 | 0.00 | 0.00 | 83 | 1012.0 |
| 20260903103043 | 83 | 126 | 8.0 | 15.0 | 0.00 | 0.00 | 0.00 | 83 | 1011.8 |
| 20260903101554 | 83 | 145 | 8.0 | 22.0 | 0.00 | 0.00 | 0.00 | 82 | 1011.9 |
| 20260903100048 | 83 | 148 | 9.0 | 20.0 | 0.00 | 0.00 | 0.00 | 82 | 1012.0 |
| 20260903094555 | 83 | 146 | 9.0 | 17.0 | 0.00 | 0.00 | 0.00 | 81 | 1012.0 |
| 20260903093049 | 83 | 146 | 10.0 | 17.0 | 0.00 | 0.00 | 0.00 | 81 | 1012.1 |
| 20260903091552 | 83 | 183 | 10.0 | 16.0 | 0.00 | 0.00 | 0.00 | 80 | 1012.5 |
| 20260903090057 | 84 | 149 | 8.0 | 17.0 | 0.00 | 0.00 | 0.00 | 80 | 1012.4 |
| 20260903084554 | 84 | 215 | 10.0 | 18.0 | 0.00 | 0.00 | 0.00 | 79 | 1012.4 |
| 20260903083048 | 84 | 142 | 9.0 | 16.0 | 0.00 | 0.00 | 0.00 | 79 | 1012.7 |
| 20260903081544 | 84 | 153 | 9.0 | 18.0 | 0.00 | 0.00 | 0.00 | 79 | 1012.5 |
| 20260903080048 | 84 | 130 | 8.0 | 18.0 | 0.00 | 0.00 | 0.00 | 80 | 1012.7 |
| 20260903074555 | 84 | 140 | 13.0 | 21.0 | 0.00 | 0.00 | 0.00 | 80 | 1012.6 |
| 20260903073051 | 84 | 162 | 10.0 | 21.0 | 0.00 | 0.00 | 0.00 | 80 | 1012.5 |
| 20260903071548 | 84 | 139 | 16.0 | 24.0 | 0.00 | 0.00 | 0.00 | 79 | 1012.5 |
| 20260903070044 | 85 | 139 | 13.0 | 22.0 | 0.00 | 0.00 | 0.00 | 79 | 1012.8 |
| 20260903064542 | 85 | 128 | 11.0 | 21.0 | 0.00 | 0.00 | 0.00 | 78 | 1012.7 |
| 20260903063105 | 85 | 123 | 13.0 | 21.0 | 0.00 | 0.00 | 0.00 | 78 | 1012.8 |
| 20260903061546 | 85 | 119 | 11.0 | 19.0 | 0.00 | 0.00 | 0.00 | 79 | 1012.8 |
| 20260903060044 | 85 | 155 | 12.0 | 22.0 | 0.00 | 0.00 | 0.00 | 80 | 1012.8 |
| 20260903054543 | 85 | 145 | 10.0 | 20.0 | 0.00 | 0.00 | 0.00 | 79 | 1013.0 |
| 20260903053103 | 85 | 139 | 12.0 | 21.0 | 0.00 | 0.00 | 0.00 | 79 | 1013.0 |
| 20260903051552 | 85 | 136 | 12.0 | 19.0 | 0.00 | 0.00 | 0.00 | 79 | 1013.0 |
| 20260903050101 | 85 | 134 | 10.0 | 19.0 | 0.00 | 0.00 | 0.00 | 79 | 1013.1 |
| 20260903044556 | 85 | 132 | 10.0 | 16.0 | 0.00 | 0.00 | 0.00 | 79 | 1013.1 |
| 20260903043049 | 86 | 162 | 9.0 | 19.0 | 0.00 | 0.00 | 0.00 | 78 | 1013.2 |
| 20260903041554 | 86 | 157 | 9.0 | 18.0 | 0.00 | 0.00 | 0.00 | 78 | 1013.3 |
| 20260903040054 | 86 | 135 | 12.0 | 19.0 | 0.00 | 0.00 | 0.00 | 77 | 1013.4 |
| 20260903034545 | 86 | 126 | 11.0 | 19.0 | 0.00 | 0.00 | 0.00 | 76 | 1013.4 |
| 20260903033042 | 86 | 142 | 12.0 | 24.0 | 0.00 | 0.00 | 0.00 | 75 | 1013.2 |
| 20260903031606 | 87 | 130 | 11.0 | 23.0 | 0.00 | 0.00 | 0.00 | 75 | 1012.9 |
| 20260903030050 | 87 | 128 | 9.0 | 22.0 | 0.00 | 0.00 | 0.00 | 75 | 1012.8 |
| 20260903024547 | 87 | 112 | 10.0 | 20.0 | 0.00 | 0.00 | 0.00 | 75 | 1012.6 |
| 20260903023043 | 88 | 135 | 10.0 | 23.0 | 0.00 | 0.00 | 0.00 | 74 | 1012.0 |
| 20260903021554 | 88 | 134 | 12.0 | 24.0 | 0.00 | 0.00 | 0.00 | 72 | 1011.9 |
| 20260903020049 | 89 | 134 | 12.0 | 22.0 | 0.00 | 0.00 | 0.00 | 70 | 1011.5 |
| 20260903014553 | 90 | 97 | 7.0 | 22.0 | 0.00 | 0.00 | 0.00 | 67 | 1011.1 |
| 20260903013045 | 91 | 142 | 11.0 | 21.0 | 0.00 | 0.00 | 0.00 | 64 | 1010.9 |
| 20260903011545 | 92 | 115 | 12.0 | 22.0 | 0.00 | 0.00 | 0.00 | 60 | 1010.6 |
| 20260903010050 | 94 | 135 | 10.0 | 22.0 | 0.00 | 0.00 | 0.00 | 53 | 1010.3 |
| 20260903004549 | 94 | 126 | 9.0 | 18.0 | 0.00 | 0.00 | 0.00 | 52 | 1010.2 |